Hauptseite
METAR-TAF:

METAR-TAF

Flughäfen :

RAF

Holbeach, England

Breite: 52-52N, Länge: 000-09E, Höhe: 3 m

Beobachtung

Neuester Wetterbericht von vor 14 Stunden und 49 Minuten, um 17:50 UTC
Wind 21 kt aus Süd
Temperatur 8°C
Luftfeuchtigkeit 87%
Luftdruck 1002 hPa
Sichtweite 10 km oder mehr
Aufgelockert bewölkt in der Höhe von 4000 ft
Geschlossene Wolkendecke in der Höhe von 6000 ft
Leichtregen

METAR: EGYH 181750Z 17021KT 9999 -RA SCT040 OVC060 08/06 Q1002 BLU

Zeit: 08:39 (08:39 UTC)


TAF: fehlend

Wetterbeobachtungen und Prognosen von mehr als 4000 Flughäfen (METAR und TAF Bericht).

Die verfügbaren Stationen werden durch gelbe und rote Markierungen auf der Karte dargestellt.

Führen Sie die Maus auf sie, um den Namen der Station zu sehen.

Darauf klicken, um die Beobachtung von Wetterbeobachtungen und Prognosen zu sehen.

Um die Karte zu ändern : klicken Sie auf den grünen Tasten mit einem schwarzen Kreuz Zum Vergrößern, auf den grünen Button mit einem Gedankenstrich zu verkleinern, oder auf die grünen Pfeile für benachbarte Karten.


METAR-TAF: